When you browse on this site, cookies collect data to enhance your experience and personalize the content and advertising you see.
Visit our Privacy Policy to learn more. By continuing to use the site, you agree to this use of cookies and data.
  • In United Kingdom
  • List of Countries
  • For 7 days
  • Water Temperature
  • Satellite Maps
  • Weather Map
  • Weather Widgets
  • user-avatar
    Login

    Hourly Weather Kecskemet

    Today, 20 June, Thursday

    Time Temperature Precipitation Wind Pressure Humidity
    00:00 +23°C° 1.1 mm 1 mps 748 mmHg 85%
    01:00 +21°C° 1.1 mm 2 mps 748 mmHg 87%
    02:00 +21°C° 0 mm 2 mps 748 mmHg 89%
    03:00 +21°C° 0 mm 2 mps 748 mmHg 90%
    04:00 +21°C° 0 mm 1 mps 748 mmHg 91%
    05:00 +22°C° 0 mm 1 mps 748 mmHg 87%
    06:00 +24°C° 0 mm 1 mps 748 mmHg 83%
    07:00 +25°C° 0 mm 1 mps 748 mmHg 79%
    08:00 +26°C° 0.3 mm 1 mps 748 mmHg 74%
    09:00 +27°C° 0.3 mm 2 mps 748 mmHg 69%
    10:00 +28°C° 0.3 mm 2 mps 748 mmHg 63%
    11:00 +29°C° 0.3 mm 2 mps 748 mmHg 61%
    12:00 +29°C° 0.3 mm 2 mps 748 mmHg 58%
    13:00 +30°C° 0.3 mm 2 mps 748 mmHg 56%
    14:00 +30°C° 0 mm 2 mps 748 mmHg 55%
    15:00 +30°C° 0 mm 2 mps 748 mmHg 53%
    16:00 +31°C° 0 mm 1 mps 747 mmHg 52%
    17:00 +29°C° 0.1 mm 1 mps 747 mmHg 59%
    18:00 +28°C° 0.1 mm 1 mps 747 mmHg 65%
    19:00 +27°C° 0.1 mm 1 mps 747 mmHg 71%
    20:00 +26°C° 0.2 mm 1 mps 748 mmHg 73%
    21:00 +25°C° 0.2 mm 1 mps 748 mmHg 76%
    22:00 +22°C° 0.2 mm 0 mps 748 mmHg 78%
    23:00 +21°C° 1.7 mm 0 mps 748 mmHg 80%

    Tomorrow, 21 June, Friday

    Time Temperature Precipitation Wind Pressure Humidity
    00:00 +23°C° 1.7 mm 1 mps 748 mmHg 82%
    01:00 +23°C° 1.7 mm 1 mps 748 mmHg 84%
    02:00 +22°C° 0.7 mm 1 mps 748 mmHg 86%
    03:00 +22°C° 0.7 mm 1 mps 748 mmHg 88%
    04:00 +21°C° 0.7 mm 1 mps 749 mmHg 89%
    05:00 +23°C° 0 mm 1 mps 749 mmHg 86%
    06:00 +24°C° 0 mm 1 mps 749 mmHg 82%
    07:00 +25°C° 0 mm 1 mps 750 mmHg 78%
    08:00 +26°C° 0 mm 1 mps 750 mmHg 73%
    09:00 +28°C° 0 mm 2 mps 750 mmHg 68%
    10:00 +29°C° 0 mm 2 mps 750 mmHg 64%
    11:00 +29°C° 0.1 mm 2 mps 750 mmHg 61%
    12:00 +30°C° 0.1 mm 3 mps 750 mmHg 58%
    13:00 +31°C° 0.1 mm 3 mps 749 mmHg 55%
    14:00 +31°C° 0 mm 3 mps 749 mmHg 55%
    15:00 +31°C° 0 mm 3 mps 749 mmHg 55%
    16:00 +30°C° 0 mm 3 mps 749 mmHg 55%
    17:00 +29°C° 0.1 mm 3 mps 749 mmHg 62%
    18:00 +27°C° 0.1 mm 3 mps 749 mmHg 68%
    19:00 +26°C° 0.1 mm 3 mps 749 mmHg 75%
    20:00 +25°C° 0 mm 3 mps 749 mmHg 77%
    21:00 +24°C° 0 mm 2 mps 750 mmHg 78%
    22:00 +23°C° 0 mm 2 mps 750 mmHg 80%
    23:00 +23°C° 0 mm 2 mps 750 mmHg 81%

    Day after tomorrow, 22 June, Saturday

    Time Temperature Precipitation Wind Pressure Humidity
    00:00 +21°C° 0 mm 2 mps 750 mmHg 82%
    01:00 +21°C° 0 mm 2 mps 750 mmHg 84%
    02:00 +20°C° 0 mm 2 mps 750 mmHg 86%
    03:00 +21°C° 0 mm 1 mps 750 mmHg 88%
    04:00 +20°C° 0 mm 1 mps 750 mmHg 89%
    05:00 +22°C° 0 mm 1 mps 750 mmHg 85%
    06:00 +23°C° 0 mm 1 mps 750 mmHg 81%
    07:00 +24°C° 0 mm 1 mps 751 mmHg 77%
    08:00 +26°C° 0.1 mm 1 mps 751 mmHg 71%
    09:00 +27°C° 0.1 mm 1 mps 750 mmHg 65%
    10:00 +29°C° 0.1 mm 1 mps 750 mmHg 60%
    11:00 +29°C° 0.1 mm 1 mps 750 mmHg 56%
    12:00 +30°C° 0.1 mm 1 mps 750 mmHg 53%
    13:00 +31°C° 0.1 mm 1 mps 749 mmHg 50%
    14:00 +31°C° 0 mm 1 mps 749 mmHg 49%
    15:00 +31°C° 0 mm 1 mps 749 mmHg 48%
    16:00 +31°C° 0 mm 1 mps 748 mmHg 47%
    17:00 +30°C° 0 mm 1 mps 748 mmHg 52%
    18:00 +28°C° 0 mm 1 mps 748 mmHg 58%
    19:00 +27°C° 0 mm 1 mps 748 mmHg 63%
    20:00 +26°C° 0.5 mm 1 mps 748 mmHg 68%
    21:00 +25°C° 0.5 mm 1 mps 748 mmHg 74%
    22:00 +23°C° 0.5 mm 2 mps 748 mmHg 79%
    23:00 +23°C° 0.8 mm 2 mps 748 mmHg 83%

    23 June, Sunday

    Time Temperature Precipitation Wind Pressure Humidity
    00:00 +21°C° 0.8 mm 2 mps 748 mmHg 88%
    01:00 +20°C° 0.8 mm 2 mps 748 mmHg 92%
    02:00 +20°C° 0.7 mm 2 mps 748 mmHg 93%
    03:00 +21°C° 0.7 mm 1 mps 748 mmHg 94%
    04:00 +20°C° 0.7 mm 1 mps 748 mmHg 95%
    05:00 +21°C° 0.7 mm 1 mps 748 mmHg 93%
    06:00 +21°C° 0.7 mm 2 mps 748 mmHg 91%
    07:00 +21°C° 0.7 mm 2 mps 749 mmHg 90%
    08:00 +23°C° 0.2 mm 2 mps 749 mmHg 89%
    09:00 +23°C° 0.2 mm 1 mps 749 mmHg 88%
    10:00 +23°C° 0.2 mm 1 mps 749 mmHg 88%
    11:00 +24°C° 0.6 mm 1 mps 749 mmHg 81%
    12:00 +26°C° 0.6 mm 1 mps 749 mmHg 74%
    13:00 +27°C° 0.6 mm 1 mps 749 mmHg 67%
    14:00 +27°C° 0.3 mm 1 mps 749 mmHg 66%
    15:00 +28°C° 0.3 mm 2 mps 749 mmHg 65%
    16:00 +28°C° 0.3 mm 2 mps 749 mmHg 64%
    17:00 +27°C° 0.6 mm 3 mps 749 mmHg 71%
    18:00 +25°C° 0.6 mm 5 mps 749 mmHg 79%
    19:00 +23°C° 0.6 mm 6 mps 750 mmHg 86%
    20:00 +22°C° 0.1 mm 5 mps 750 mmHg 87%
    21:00 +21°C° 0.1 mm 5 mps 750 mmHg 87%
    22:00 +20°C° 0.1 mm 5 mps 751 mmHg 87%
    23:00 +20°C° 0 mm 4 mps 751 mmHg 88%

    24 June, Monday

    Time Temperature Precipitation Wind Pressure Humidity
    00:00 +19°C° 0 mm 4 mps 751 mmHg 88%
    01:00 +19°C° 0 mm 3 mps 751 mmHg 89%
    02:00 +19°C° 0 mm 3 mps 751 mmHg 89%
    03:00 +19°C° 0 mm 3 mps 752 mmHg 89%
    04:00 +18°C° 0 mm 3 mps 752 mmHg 89%
    05:00 +20°C° 0 mm 4 mps 752 mmHg 85%
    06:00 +21°C° 0 mm 4 mps 752 mmHg 81%
    07:00 +22°C° 0 mm 5 mps 753 mmHg 77%
    08:00 +23°C° 0 mm 5 mps 753 mmHg 74%
    09:00 +26°C° 0 mm 5 mps 753 mmHg 71%
    10:00 +27°C° 0 mm 5 mps 753 mmHg 68%
    11:00 +27°C° 0 mm 5 mps 753 mmHg 67%
    12:00 +28°C° 0 mm 4 mps 753 mmHg 66%
    13:00 +29°C° 0 mm 4 mps 753 mmHg 65%
    14:00 +29°C° 0.4 mm 4 mps 753 mmHg 67%
    15:00 +28°C° 0.4 mm 4 mps 753 mmHg 68%
    16:00 +28°C° 0.4 mm 5 mps 753 mmHg 69%
    17:00 +27°C° 0.7 mm 5 mps 753 mmHg 75%
    18:00 +26°C° 0.7 mm 4 mps 753 mmHg 80%
    19:00 +25°C° 0.7 mm 4 mps 753 mmHg 85%
    20:00 +23°C° 0 mm 4 mps 753 mmHg 86%
    21:00 +22°C° 0 mm 4 mps 754 mmHg 86%
    22:00 +21°C° 0 mm 4 mps 754 mmHg 87%
    23:00 +20°C° 0 mm 4 mps 754 mmHg 88%

    25 June, Tuesday

    Time Temperature Precipitation Wind Pressure Humidity
    00:00 +20°C° 0 mm 4 mps 754 mmHg 88%
    01:00 +20°C° 0 mm 4 mps 754 mmHg 89%
    02:00 +20°C° 0 mm 3 mps 754 mmHg 89%
    03:00 +19°C° 0 mm 3 mps 754 mmHg 90%
    04:00 +19°C° 0 mm 3 mps 754 mmHg 91%
    05:00 +20°C° 0 mm 4 mps 754 mmHg 87%
    06:00 +21°C° 0 mm 4 mps 755 mmHg 84%
    07:00 +23°C° 0 mm 5 mps 755 mmHg 81%
    08:00 +25°C° 0 mm 5 mps 755 mmHg 78%
    09:00 +26°C° 0 mm 5 mps 755 mmHg 74%
    10:00 +28°C° 0 mm 5 mps 755 mmHg 71%
    11:00 +28°C° 0 mm 5 mps 755 mmHg 69%
    12:00 +29°C° 0 mm 5 mps 755 mmHg 67%
    13:00 +30°C° 0 mm 5 mps 755 mmHg 65%
    14:00 +30°C° 0 mm 5 mps 755 mmHg 65%
    15:00 +30°C° 0 mm 5 mps 754 mmHg 65%
    16:00 +30°C° 0 mm 4 mps 754 mmHg 66%
    17:00 +29°C° 0 mm 4 mps 754 mmHg 71%
    18:00 +27°C° 0 mm 3 mps 754 mmHg 76%
    19:00 +26°C° 0 mm 3 mps 755 mmHg 81%
    20:00 +25°C° 0 mm 3 mps 755 mmHg 79%
    21:00 +23°C° 0 mm 4 mps 755 mmHg 77%
    22:00 +22°C° 0 mm 4 mps 755 mmHg 75%
    23:00 +22°C° 0 mm 4 mps 755 mmHg 75%
    Show more